LCS 1

导读

LCS 1(实际为林肯实验卫星LES 1,常被误写为LCS 1)是美国1965年5月6日发射的实验通信卫星,是西福特计划的首个产物,旨在测试通过太空铜针反射无线电信号改善全球通信。它因动力故障未能进入预定轨道,1967年失联后成为太空垃圾。2013年,失联46年的它意外重启信号,引发广泛关注,也为太空垃圾治理和航天器设计提供了珍贵研究样本,同时凸显了轨道资源保护的紧迫性。

基本信息
目录编号:
1361
目录名称:
LCS 1
国际标识:
1965-034C
轨道中心:
EARTH
卫星名称:
LCS 1
卫星全名:
--
卫星状态:
在轨 (已飞行22326 天)
发射日期:
1965-05-06 UTC
国别 :
美国 (US)
星等 :
--
轨道信息
数据来源 国际轨道数据 AOE轨道数据
星历时间 2026-06-20T17:40:23+0800
1天前
查看轨道信息
2026-06-19T01:00:00+0800
2天前
查看轨道信息
半长轴 9166.004km 9166.006km
偏心率 0.0012279 0.0012902
轨道倾角 32.135° 32.133°
近地点辐角 134.187° 131.324°
升交点赤经 169.388° 173.405°
平近点角 225.964° 306.938°
近地点 2776.612km 2776.043km
远地点 2799.122km 2799.695km
周期 145.556分钟 145.556分钟
每日圈数 9.893107 9.893105
详细信息
使用方式:
暂无
2D轨道图
3D轨道图
轨道高度分析图
轨道倾角分析图
轨道综合分析图
查看轨道综合分析图